Location: Puketoi
(40.5833°S, 176.0167°E)
Time: 15:16:48
(UTC+00:00)

IDEFIX/ARIANE 42P - Pass Details

Date: 08 February 2023
Orbit: 784 x 802 km, 98.5° (Epoch: 22 March)

Event Time Altitude Azimuth Distance (km) Brightness Sun altitude
Exits shadow 14:07:00 28° 229° (SW) 1,475 4.0 -30.1°
Drops below altitude 10° 14:09:44 10° 208° (SSW) 2,375 5.4 -29.8°
Sets 14:12:13 0° 200° (SSW) 3,311 6.3 -29.6°
